Powrót do katalogu

STARLINK-2683

AktywnyŁącznośćVLEO
NORAD 48462·PAYLOAD·🇺🇸 United States

Wystrzelony May 9, 2021 z Cape Canaveral Space Force Station

Loading…

Następne Przeloty (najbliższe 24 godziny)

TLE

ŚwieżeSource: CelesTrak SupGP

Epoka: Sep 15, 2026, 02:23 UTC

1 48462C 21040AL  26258.09979167 -.00005346  00000+0 -17206-3 0  2588
2 48462  53.1604  29.5985 0001287  88.9263 337.4524 15.31674846    11

Śledź STARLINK-2683 w czasie rzeczywistym z AllMySat

Download on the App Store